Year,Month,Day,Hour,Minute,Value (Times are PST for temperature in C)
2010,07,02,00,00,11.10
2010,07,02,00,01,11.10
2010,07,02,00,02,11.10
2010,07,02,00,03,11.10
2010,07,02,00,04,11.10
2010,07,02,00,05,11.10
2010,07,02,00,06,11.10
2010,07,02,00,07,11.10
2010,07,02,00,08,11.10
2010,07,02,00,09,11.10
2010,07,02,00,10,11.10
2010,07,02,00,11,11.10
2010,07,02,00,12,11.10
2010,07,02,00,13,11.10
2010,07,02,00,14,11.10
2010,07,02,00,15,11.10
2010,07,02,00,16,11.20
2010,07,02,00,17,11.10
2010,07,02,00,18,11.10
2010,07,02,00,19,11.20
2010,07,02,00,20,11.20
2010,07,02,00,21,11.20
2010,07,02,00,22,11.10
2010,07,02,00,23,11.20
2010,07,02,00,24,11.10
2010,07,02,00,25,11.10
2010,07,02,00,26,11.10
2010,07,02,00,27,11.20
2010,07,02,00,28,11.20
2010,07,02,00,29,11.20
2010,07,02,00,30,11.20
2010,07,02,00,31,11.20
2010,07,02,00,32,11.20
2010,07,02,00,33,11.20
2010,07,02,00,34,11.20
2010,07,02,00,35,11.20
2010,07,02,00,36,11.20
2010,07,02,00,37,11.20
2010,07,02,00,38,11.20
2010,07,02,00,39,11.20
2010,07,02,00,40,11.20
2010,07,02,00,41,11.20
2010,07,02,00,42,11.20
2010,07,02,00,43,11.20
2010,07,02,00,44,11.20
2010,07,02,00,45,11.20
2010,07,02,00,46,11.20
2010,07,02,00,47,11.20
2010,07,02,00,48,11.20
2010,07,02,00,49,11.20
2010,07,02,00,50,11.20
2010,07,02,00,51,11.20
2010,07,02,00,52,11.20
2010,07,02,00,53,11.20
2010,07,02,00,54,11.20
2010,07,02,00,55,11.20
2010,07,02,00,56,11.20
2010,07,02,00,57,11.20
2010,07,02,00,58,11.20
2010,07,02,00,59,11.20
2010,07,02,01,00,11.20
2010,07,02,01,01,11.20
2010,07,02,01,02,11.20
2010,07,02,01,03,11.20
2010,07,02,01,04,11.20
2010,07,02,01,05,11.20
2010,07,02,01,06,11.20
2010,07,02,01,07,11.20
2010,07,02,01,08,11.20
2010,07,02,01,09,11.20
2010,07,02,01,10,11.20
2010,07,02,01,11,11.20
2010,07,02,01,12,11.20
2010,07,02,01,13,11.20
2010,07,02,01,14,11.20
2010,07,02,01,15,11.20
2010,07,02,01,16,11.20
2010,07,02,01,17,11.20
2010,07,02,01,18,11.20
2010,07,02,01,19,11.20
2010,07,02,01,20,11.20
2010,07,02,01,21,11.20
2010,07,02,01,22,11.20
2010,07,02,01,23,11.20
2010,07,02,01,24,11.20
2010,07,02,01,25,11.20
2010,07,02,01,26,11.20
2010,07,02,01,27,11.10
2010,07,02,01,28,11.10
2010,07,02,01,29,11.10
2010,07,02,01,30,11.10
2010,07,02,01,31,11.10
2010,07,02,01,32,11.10
2010,07,02,01,33,11.10
2010,07,02,01,34,11.10
2010,07,02,01,35,11.10
2010,07,02,01,36,11.10
2010,07,02,01,37,11.10
2010,07,02,01,38,11.10
2010,07,02,01,39,11.10
2010,07,02,01,40,11.10
2010,07,02,01,41,11.10
2010,07,02,01,42,11.10
2010,07,02,01,43,11.10
2010,07,02,01,44,11.10
2010,07,02,01,45,11.10
2010,07,02,01,46,11.10
2010,07,02,01,47,11.10
2010,07,02,01,48,11.10
2010,07,02,01,49,11.10
2010,07,02,01,50,11.10
2010,07,02,01,51,11.10
2010,07,02,01,52,11.10
2010,07,02,01,53,11.10
2010,07,02,01,54,11.10
2010,07,02,01,55,11.10
2010,07,02,01,56,11.10
2010,07,02,01,57,11.10
2010,07,02,01,58,11.10
2010,07,02,01,59,11.10
2010,07,02,02,00,11.10
2010,07,02,02,01,11.10
2010,07,02,02,02,11.10
2010,07,02,02,03,11.10
2010,07,02,02,04,11.10
2010,07,02,02,05,11.10
2010,07,02,02,06,11.10
2010,07,02,02,07,11.10
2010,07,02,02,08,11.10
2010,07,02,02,09,11.10
2010,07,02,02,10,11.10
2010,07,02,02,11,11.10
2010,07,02,02,12,11.10
2010,07,02,02,13,11.10
2010,07,02,02,14,11.10
2010,07,02,02,15,11.10
2010,07,02,02,16,11.10
2010,07,02,02,17,11.10
2010,07,02,02,18,11.10
2010,07,02,02,19,11.10
2010,07,02,02,20,11.10
2010,07,02,02,21,11.10
2010,07,02,02,22,11.10
2010,07,02,02,23,11.10
2010,07,02,02,24,11.10
2010,07,02,02,25,11.10
2010,07,02,02,26,11.10
2010,07,02,02,27,11.10
2010,07,02,02,28,11.10
2010,07,02,02,29,11.10
2010,07,02,02,30,11.10
2010,07,02,02,31,11.10
2010,07,02,02,32,11.10
2010,07,02,02,33,11.10
2010,07,02,02,34,11.10
2010,07,02,02,35,11.10
2010,07,02,02,36,11.10
2010,07,02,02,37,11.10
2010,07,02,02,38,11.10
2010,07,02,02,39,11.10
2010,07,02,02,40,11.00
2010,07,02,02,41,11.00
2010,07,02,02,42,11.00
2010,07,02,02,43,11.00
2010,07,02,02,44,11.00
2010,07,02,02,45,11.00
2010,07,02,02,46,11.00
2010,07,02,02,47,11.00
2010,07,02,02,48,11.00
2010,07,02,02,49,11.00
2010,07,02,02,50,11.00
2010,07,02,02,51,11.00
2010,07,02,02,52,11.00
2010,07,02,02,53,11.00
2010,07,02,02,54,11.00
2010,07,02,02,55,11.00
2010,07,02,02,56,11.00
2010,07,02,02,57,11.00
2010,07,02,02,58,10.90
2010,07,02,02,59,10.90
2010,07,02,03,00,10.90
2010,07,02,03,01,10.90
2010,07,02,03,02,10.90
2010,07,02,03,03,10.90
2010,07,02,03,04,10.90
2010,07,02,03,05,10.90
2010,07,02,03,06,10.90
2010,07,02,03,07,10.90
2010,07,02,03,08,10.90
2010,07,02,03,09,10.80
2010,07,02,03,10,10.80
2010,07,02,03,11,10.80
2010,07,02,03,12,10.80
2010,07,02,03,13,10.80
2010,07,02,03,14,10.80
2010,07,02,03,15,10.80
2010,07,02,03,16,10.80
2010,07,02,03,17,10.70
2010,07,02,03,18,10.70
2010,07,02,03,19,10.70
2010,07,02,03,20,10.70
2010,07,02,03,21,10.70
2010,07,02,03,22,10.70
2010,07,02,03,23,10.70
2010,07,02,03,24,10.70
2010,07,02,03,25,10.60
2010,07,02,03,26,10.60
2010,07,02,03,27,10.60
2010,07,02,03,28,10.60
2010,07,02,03,29,10.60
2010,07,02,03,30,10.60
2010,07,02,03,31,10.60
2010,07,02,03,32,10.60
2010,07,02,03,33,10.60
2010,07,02,03,34,10.50
2010,07,02,03,35,10.50
2010,07,02,03,36,10.50
2010,07,02,03,37,10.50
2010,07,02,03,38,10.50
2010,07,02,03,39,10.50
2010,07,02,03,40,10.40
2010,07,02,03,41,10.40
2010,07,02,03,42,10.40
2010,07,02,03,43,10.40
2010,07,02,03,44,10.40
2010,07,02,03,45,10.40
2010,07,02,03,46,10.40
2010,07,02,03,47,10.40
2010,07,02,03,48,10.40
2010,07,02,03,49,10.40
2010,07,02,03,50,10.40
2010,07,02,03,51,10.40
2010,07,02,03,52,10.40
2010,07,02,03,53,10.30
2010,07,02,03,54,10.30
2010,07,02,03,55,10.30
2010,07,02,03,56,10.30
2010,07,02,03,57,10.30
2010,07,02,03,58,10.30
2010,07,02,03,59,10.30
2010,07,02,04,00,10.30
2010,07,02,04,01,10.30
2010,07,02,04,02,10.30
2010,07,02,04,03,10.30
2010,07,02,04,04,10.30
2010,07,02,04,05,10.30
2010,07,02,04,06,10.30
2010,07,02,04,07,10.30
2010,07,02,04,08,10.30
2010,07,02,04,09,10.30
2010,07,02,04,10,10.20
2010,07,02,04,11,10.20
2010,07,02,04,12,10.20
2010,07,02,04,13,10.20
2010,07,02,04,14,10.20
2010,07,02,04,15,10.20
2010,07,02,04,16,10.20
2010,07,02,04,17,10.20
2010,07,02,04,18,10.20
2010,07,02,04,19,10.20
2010,07,02,04,20,10.20
2010,07,02,04,21,10.20
2010,07,02,04,22,10.20
2010,07,02,04,23,10.10
2010,07,02,04,24,10.10
2010,07,02,04,25,10.10
2010,07,02,04,26,10.10
2010,07,02,04,27,10.10
2010,07,02,04,28,10.10
2010,07,02,04,29,10.10
2010,07,02,04,30,10.10
2010,07,02,04,31,10.10
2010,07,02,04,32,10.10
2010,07,02,04,33,10.10
2010,07,02,04,34,10.00
2010,07,02,04,35,10.10
2010,07,02,04,36,10.10
2010,07,02,04,37,10.00
2010,07,02,04,38,10.00
2010,07,02,04,39,10.00
2010,07,02,04,40,10.00
2010,07,02,04,41,10.00
2010,07,02,04,42,10.00
2010,07,02,04,43,10.00
2010,07,02,04,44,10.00
2010,07,02,04,45,10.00
2010,07,02,04,46,10.00
2010,07,02,04,47,10.00
2010,07,02,04,48,10.00
2010,07,02,04,49,10.00
2010,07,02,04,50,9.90
2010,07,02,04,51,9.90
2010,07,02,04,52,9.90
2010,07,02,04,53,9.90
2010,07,02,04,54,9.90
2010,07,02,04,55,9.90
2010,07,02,04,56,9.90
2010,07,02,04,57,9.90
2010,07,02,04,58,9.90
2010,07,02,04,59,9.90
2010,07,02,05,00,9.90
2010,07,02,05,01,9.90
2010,07,02,05,02,9.90
2010,07,02,05,03,9.90
2010,07,02,05,04,9.90
2010,07,02,05,05,9.90
2010,07,02,05,06,9.80
2010,07,02,05,07,9.80
2010,07,02,05,08,9.80
2010,07,02,05,09,9.80
2010,07,02,05,10,9.80
2010,07,02,05,11,9.80
2010,07,02,05,12,9.80
2010,07,02,05,13,9.80
2010,07,02,05,14,9.70
2010,07,02,05,15,9.70
2010,07,02,05,16,9.70
2010,07,02,05,17,9.70
2010,07,02,05,18,9.70
2010,07,02,05,19,9.70
2010,07,02,05,20,9.70
2010,07,02,05,21,9.70
2010,07,02,05,22,9.70
2010,07,02,05,23,9.70
2010,07,02,05,24,9.70
2010,07,02,05,25,9.70
2010,07,02,05,26,9.70
2010,07,02,05,27,9.70
2010,07,02,05,28,9.70
2010,07,02,05,29,9.60
2010,07,02,05,30,9.60
2010,07,02,05,31,9.60
2010,07,02,05,32,9.70
2010,07,02,05,33,9.60
2010,07,02,05,34,9.60
2010,07,02,05,35,9.60
2010,07,02,05,36,9.60
2010,07,02,05,37,9.60
2010,07,02,05,38,9.60
2010,07,02,05,39,9.60
2010,07,02,05,40,9.60
2010,07,02,05,41,9.60
2010,07,02,05,42,9.50
2010,07,02,05,43,9.50
2010,07,02,05,44,9.50
2010,07,02,05,45,9.50
2010,07,02,05,46,9.50
2010,07,02,05,47,9.50
2010,07,02,05,48,9.50
2010,07,02,05,49,9.50
2010,07,02,05,50,9.50
2010,07,02,05,51,9.50
2010,07,02,05,52,9.50
2010,07,02,05,53,9.50
2010,07,02,05,54,9.40
2010,07,02,05,55,9.40
2010,07,02,05,56,9.40
2010,07,02,05,57,9.40
2010,07,02,05,58,9.40
2010,07,02,05,59,9.40
2010,07,02,06,00,9.40
2010,07,02,06,01,9.40
2010,07,02,06,02,9.40
2010,07,02,06,03,9.40
2010,07,02,06,04,9.40
2010,07,02,06,05,9.40
2010,07,02,06,06,9.40
2010,07,02,06,07,9.40
2010,07,02,06,08,9.40
2010,07,02,06,09,9.40
2010,07,02,06,10,9.50
2010,07,02,06,11,9.50
2010,07,02,06,12,9.50
2010,07,02,06,13,9.50
2010,07,02,06,14,9.60
2010,07,02,06,15,9.60
2010,07,02,06,16,9.60
2010,07,02,06,17,9.60
2010,07,02,06,18,9.60
2010,07,02,06,19,9.60
2010,07,02,06,20,9.60
2010,07,02,06,21,9.70
2010,07,02,06,22,9.70
2010,07,02,06,23,9.70
2010,07,02,06,24,9.70
2010,07,02,06,25,9.70
2010,07,02,06,26,9.70
2010,07,02,06,27,9.70
2010,07,02,06,28,9.80
2010,07,02,06,29,9.80
2010,07,02,06,30,9.80
2010,07,02,06,31,9.80
2010,07,02,06,32,9.80
2010,07,02,06,33,9.80
2010,07,02,06,34,9.80
2010,07,02,06,35,9.90
2010,07,02,06,36,9.90
2010,07,02,06,37,9.90
2010,07,02,06,38,9.90
2010,07,02,06,39,10.00
2010,07,02,06,40,10.00
2010,07,02,06,41,10.00
2010,07,02,06,42,10.00
2010,07,02,06,43,10.10
2010,07,02,06,44,10.10
2010,07,02,06,45,10.20
2010,07,02,06,46,10.20
2010,07,02,06,47,10.20
2010,07,02,06,48,10.30
2010,07,02,06,49,10.30
2010,07,02,06,50,10.30
2010,07,02,06,51,10.40
2010,07,02,06,52,10.40
2010,07,02,06,53,10.50
2010,07,02,06,54,10.50
2010,07,02,06,55,10.60
2010,07,02,06,56,10.60
2010,07,02,06,57,10.60
2010,07,02,06,58,10.60
2010,07,02,06,59,10.60
2010,07,02,07,00,10.60
2010,07,02,07,01,10.60
2010,07,02,07,02,10.70
2010,07,02,07,03,10.70
2010,07,02,07,04,10.70
2010,07,02,07,05,10.70
2010,07,02,07,06,10.70
2010,07,02,07,07,10.80
2010,07,02,07,08,10.80
2010,07,02,07,09,10.80
2010,07,02,07,10,10.80
2010,07,02,07,11,10.80
2010,07,02,07,12,10.90
2010,07,02,07,13,10.90
2010,07,02,07,14,10.90
2010,07,02,07,15,10.90
2010,07,02,07,16,10.90
2010,07,02,07,17,11.00
2010,07,02,07,18,11.00
2010,07,02,07,19,11.00
2010,07,02,07,20,11.00
2010,07,02,07,21,11.10
2010,07,02,07,22,11.10
2010,07,02,07,23,11.10
2010,07,02,07,24,11.10
2010,07,02,07,25,11.10
2010,07,02,07,26,11.10
2010,07,02,07,27,11.10
2010,07,02,07,28,11.20
2010,07,02,07,29,11.20
2010,07,02,07,30,11.20
2010,07,02,07,31,11.20
2010,07,02,07,32,11.20
2010,07,02,07,33,11.20
2010,07,02,07,34,11.20
2010,07,02,07,35,11.20
2010,07,02,07,36,11.20
2010,07,02,07,37,11.20
2010,07,02,07,38,11.20
2010,07,02,07,39,11.20
2010,07,02,07,40,11.20
2010,07,02,07,41,11.30
2010,07,02,07,42,11.30
2010,07,02,07,43,11.30
2010,07,02,07,44,11.30
2010,07,02,07,45,11.30
2010,07,02,07,46,11.30
2010,07,02,07,47,11.30
2010,07,02,07,48,11.40
2010,07,02,07,49,11.40
2010,07,02,07,50,11.40
2010,07,02,07,51,11.40
2010,07,02,07,52,11.40
2010,07,02,07,53,11.50
2010,07,02,07,54,11.50
2010,07,02,07,55,11.50
2010,07,02,07,56,11.50
2010,07,02,07,57,11.60
2010,07,02,07,58,11.60
2010,07,02,07,59,11.60
2010,07,02,08,00,11.60
2010,07,02,08,01,11.60
2010,07,02,08,02,11.60
2010,07,02,08,03,11.60
2010,07,02,08,04,11.60
2010,07,02,08,05,11.60
2010,07,02,08,06,11.60
2010,07,02,08,07,11.60
2010,07,02,08,08,11.60
2010,07,02,08,09,11.60
2010,07,02,08,10,11.60
2010,07,02,08,11,11.70
2010,07,02,08,12,11.70
2010,07,02,08,13,11.70
2010,07,02,08,14,11.70
2010,07,02,08,15,11.70
2010,07,02,08,16,11.70
2010,07,02,08,17,11.70
2010,07,02,08,18,11.70
2010,07,02,08,19,11.70
2010,07,02,08,20,11.70
2010,07,02,08,21,11.70
2010,07,02,08,22,11.70
2010,07,02,08,23,11.70
2010,07,02,08,24,11.80
2010,07,02,08,25,11.80
2010,07,02,08,26,11.80
2010,07,02,08,27,11.80
2010,07,02,08,28,11.80
2010,07,02,08,29,11.90
2010,07,02,08,30,11.90
2010,07,02,08,31,11.90
2010,07,02,08,32,11.90
2010,07,02,08,33,11.90
2010,07,02,08,34,12.00
2010,07,02,08,35,12.00
2010,07,02,08,36,12.10
2010,07,02,08,37,12.10
2010,07,02,08,38,12.10
2010,07,02,08,39,12.10
2010,07,02,08,40,12.20
2010,07,02,08,41,12.20
2010,07,02,08,42,12.20
2010,07,02,08,43,12.30
2010,07,02,08,44,12.30
2010,07,02,08,45,12.30
2010,07,02,08,46,12.30
2010,07,02,08,47,12.40
2010,07,02,08,48,12.40
2010,07,02,08,49,12.40
2010,07,02,08,50,12.50
2010,07,02,08,51,12.50
2010,07,02,08,52,12.60
2010,07,02,08,53,12.60
2010,07,02,08,54,12.60
2010,07,02,08,55,12.60
2010,07,02,08,56,12.60
2010,07,02,08,57,12.60
2010,07,02,08,58,12.60
2010,07,02,08,59,12.60
2010,07,02,09,00,12.60
2010,07,02,09,01,12.60
2010,07,02,09,02,12.70
2010,07,02,09,03,12.70
2010,07,02,09,04,12.70
2010,07,02,09,05,12.80
2010,07,02,09,06,12.80
2010,07,02,09,07,12.80
2010,07,02,09,08,12.80
2010,07,02,09,09,12.80
2010,07,02,09,10,12.90
2010,07,02,09,11,12.90
2010,07,02,09,12,12.90
2010,07,02,09,13,13.00
2010,07,02,09,14,13.00
2010,07,02,09,15,13.00
2010,07,02,09,16,13.10
2010,07,02,09,17,13.10
2010,07,02,09,18,13.20
2010,07,02,09,19,13.30
2010,07,02,09,20,13.30
2010,07,02,09,21,13.40
2010,07,02,09,22,13.40
2010,07,02,09,23,13.40
2010,07,02,09,24,13.50
2010,07,02,09,25,13.50
2010,07,02,09,26,13.60
2010,07,02,09,27,13.60
2010,07,02,09,28,13.60
2010,07,02,09,29,13.70
2010,07,02,09,30,13.70
2010,07,02,09,31,13.70
2010,07,02,09,32,13.70
2010,07,02,09,33,13.80
2010,07,02,09,34,13.80
2010,07,02,09,35,13.90
2010,07,02,09,36,13.90
2010,07,02,09,37,14.00
2010,07,02,09,38,14.00
2010,07,02,09,39,14.10
2010,07,02,09,40,14.10
2010,07,02,09,41,14.20
2010,07,02,09,42,14.20
2010,07,02,09,43,14.20
2010,07,02,09,44,14.20
2010,07,02,09,45,14.20
2010,07,02,09,46,14.20
2010,07,02,09,47,14.20
2010,07,02,09,48,14.20
2010,07,02,09,49,14.10
2010,07,02,09,50,14.10
2010,07,02,09,51,14.10
2010,07,02,09,52,14.10
2010,07,02,09,53,14.10
2010,07,02,09,54,14.10
2010,07,02,09,55,14.10
2010,07,02,09,56,14.20
2010,07,02,09,57,14.20
2010,07,02,09,58,14.20
2010,07,02,09,59,14.30
2010,07,02,10,00,14.30
2010,07,02,10,01,14.40
2010,07,02,10,02,14.40
2010,07,02,10,03,14.40
2010,07,02,10,04,14.40
2010,07,02,10,05,14.40
2010,07,02,10,06,14.40
2010,07,02,10,07,14.40
2010,07,02,10,08,14.50
2010,07,02,10,09,14.60
2010,07,02,10,10,14.60
2010,07,02,10,11,14.60
2010,07,02,10,12,14.70
2010,07,02,10,13,14.80
2010,07,02,10,14,14.80
2010,07,02,10,15,14.90
2010,07,02,10,16,14.90
2010,07,02,10,17,14.90
2010,07,02,10,18,14.90
2010,07,02,10,19,14.90
2010,07,02,10,20,14.90
2010,07,02,10,21,14.90
2010,07,02,10,22,14.90
2010,07,02,10,23,14.90
2010,07,02,10,24,14.90
2010,07,02,10,25,14.90
2010,07,02,10,26,14.80
2010,07,02,10,27,14.80
2010,07,02,10,28,14.80
2010,07,02,10,29,14.80
2010,07,02,10,30,14.80
2010,07,02,10,31,14.80
2010,07,02,10,32,14.80
2010,07,02,10,33,14.80
2010,07,02,10,34,14.80
2010,07,02,10,35,14.80
2010,07,02,10,36,14.80
2010,07,02,10,37,14.80
2010,07,02,10,38,14.80
2010,07,02,10,39,14.90
2010,07,02,10,40,15.00
2010,07,02,10,41,15.10
2010,07,02,10,42,15.20
2010,07,02,10,43,15.30
2010,07,02,10,44,15.40
2010,07,02,10,45,15.60
2010,07,02,10,46,15.70
2010,07,02,10,47,15.70
2010,07,02,10,48,15.80
2010,07,02,10,49,15.80
2010,07,02,10,50,15.90
2010,07,02,10,51,15.90
2010,07,02,10,52,15.90
2010,07,02,10,53,16.00
2010,07,02,10,54,16.00
2010,07,02,10,55,16.00
2010,07,02,10,56,16.10
2010,07,02,10,57,16.10
2010,07,02,10,58,16.10
2010,07,02,10,59,16.20
2010,07,02,11,00,16.20
2010,07,02,11,01,16.20
2010,07,02,11,02,16.30
2010,07,02,11,03,16.30
2010,07,02,11,04,16.30
2010,07,02,11,05,16.40
2010,07,02,11,06,16.40
2010,07,02,11,07,16.40
2010,07,02,11,08,16.40
2010,07,02,11,09,16.50
2010,07,02,11,10,16.50
2010,07,02,11,11,16.60
2010,07,02,11,12,16.70
2010,07,02,11,13,16.80
2010,07,02,11,14,16.80
2010,07,02,11,15,16.90
2010,07,02,11,16,16.90
2010,07,02,11,17,16.90
2010,07,02,11,18,16.80
2010,07,02,11,19,16.80
2010,07,02,11,20,16.80
2010,07,02,11,21,16.70
2010,07,02,11,22,16.70
2010,07,02,11,23,16.70
2010,07,02,11,24,16.70
2010,07,02,11,25,16.70
2010,07,02,11,26,16.70
2010,07,02,11,27,16.70
2010,07,02,11,28,16.70
2010,07,02,11,29,16.70
2010,07,02,11,30,16.70
2010,07,02,11,31,16.60
2010,07,02,11,32,16.60
2010,07,02,11,33,16.50
2010,07,02,11,34,16.50
2010,07,02,11,35,16.50
2010,07,02,11,36,16.40
2010,07,02,11,37,16.40
2010,07,02,11,38,16.40
2010,07,02,11,39,16.30
2010,07,02,11,40,16.30
2010,07,02,11,41,16.30
2010,07,02,11,42,16.30
2010,07,02,11,43,16.30
2010,07,02,11,44,16.30
2010,07,02,11,45,16.30
2010,07,02,11,46,16.40
2010,07,02,11,47,16.40
2010,07,02,11,48,16.40
2010,07,02,11,49,16.40
2010,07,02,11,50,16.40
2010,07,02,11,51,16.40
2010,07,02,11,52,16.40
2010,07,02,11,53,16.30
2010,07,02,11,54,16.30
2010,07,02,11,55,16.30
2010,07,02,11,56,16.30
2010,07,02,11,57,16.30
2010,07,02,11,58,16.30
2010,07,02,11,59,16.30
2010,07,02,12,00,16.30
2010,07,02,12,01,16.30
2010,07,02,12,02,16.30
2010,07,02,12,03,16.30
2010,07,02,12,04,16.30
2010,07,02,12,05,16.40
2010,07,02,12,06,16.40
2010,07,02,12,07,16.40
2010,07,02,12,08,16.40
2010,07,02,12,09,16.40
2010,07,02,12,10,16.40
2010,07,02,12,11,16.40
2010,07,02,12,12,16.40
2010,07,02,12,13,16.40
2010,07,02,12,14,16.40
2010,07,02,12,15,16.40
2010,07,02,12,16,16.40
2010,07,02,12,17,16.40
2010,07,02,12,18,16.40
2010,07,02,12,19,16.30
2010,07,02,12,20,16.30
2010,07,02,12,21,16.30
2010,07,02,12,22,16.40
2010,07,02,12,23,16.40
2010,07,02,12,24,16.40
2010,07,02,12,25,16.40
2010,07,02,12,26,16.40
2010,07,02,12,27,16.40
2010,07,02,12,28,16.40
2010,07,02,12,29,16.40
2010,07,02,12,30,16.40
2010,07,02,12,31,16.30
2010,07,02,12,32,16.30
2010,07,02,12,33,16.30
2010,07,02,12,34,16.30
2010,07,02,12,35,16.30
2010,07,02,12,36,16.30
2010,07,02,12,37,16.30
2010,07,02,12,38,16.30
2010,07,02,12,39,16.30
2010,07,02,12,40,16.30
2010,07,02,12,41,16.20
2010,07,02,12,42,16.20
2010,07,02,12,43,16.20
2010,07,02,12,44,16.10
2010,07,02,12,45,16.00
2010,07,02,12,46,16.00
2010,07,02,12,47,15.90
2010,07,02,12,48,15.80
2010,07,02,12,49,15.80
2010,07,02,12,50,15.70
2010,07,02,12,51,15.60
2010,07,02,12,52,15.60
2010,07,02,12,53,15.60
2010,07,02,12,54,15.60
2010,07,02,12,55,15.60
2010,07,02,12,56,15.60
2010,07,02,12,57,15.60
2010,07,02,12,58,15.70
2010,07,02,12,59,15.70
2010,07,02,13,00,15.70
2010,07,02,13,01,15.70
2010,07,02,13,02,15.80
2010,07,02,13,03,15.80
2010,07,02,13,04,15.90
2010,07,02,13,05,15.90
2010,07,02,13,06,15.90
2010,07,02,13,07,15.90
2010,07,02,13,08,15.90
2010,07,02,13,09,16.00
2010,07,02,13,10,16.00
2010,07,02,13,11,16.10
2010,07,02,13,12,16.10
2010,07,02,13,13,16.20
2010,07,02,13,14,16.20
2010,07,02,13,15,16.20
2010,07,02,13,16,16.20
2010,07,02,13,17,16.30
2010,07,02,13,18,16.30
2010,07,02,13,19,16.30
2010,07,02,13,20,16.30
2010,07,02,13,21,16.30
2010,07,02,13,22,16.30
2010,07,02,13,23,16.30
2010,07,02,13,24,16.30
2010,07,02,13,25,16.30
2010,07,02,13,26,16.30
2010,07,02,13,27,16.30
2010,07,02,13,28,16.40
2010,07,02,13,29,16.40
2010,07,02,13,30,16.40
2010,07,02,13,31,16.40
2010,07,02,13,32,16.40
2010,07,02,13,33,16.40
2010,07,02,13,34,16.40
2010,07,02,13,35,16.40
2010,07,02,13,36,16.30
2010,07,02,13,37,16.30
2010,07,02,13,38,16.30
2010,07,02,13,39,16.30
2010,07,02,13,40,16.20
2010,07,02,13,41,16.20
2010,07,02,13,42,16.10
2010,07,02,13,43,16.10
2010,07,02,13,44,16.10
2010,07,02,13,45,16.10
2010,07,02,13,46,16.10
2010,07,02,13,47,16.10
2010,07,02,13,48,16.10
2010,07,02,13,49,16.10
2010,07,02,13,50,16.10
2010,07,02,13,51,16.20
2010,07,02,13,52,16.20
2010,07,02,13,53,16.20
2010,07,02,13,54,16.20
2010,07,02,13,55,16.30
2010,07,02,13,56,16.30
2010,07,02,13,57,16.40
2010,07,02,13,58,16.50
2010,07,02,13,59,16.50
2010,07,02,14,00,16.60
2010,07,02,14,01,16.60
2010,07,02,14,02,16.70
2010,07,02,14,03,16.80
2010,07,02,14,04,16.80
2010,07,02,14,05,16.90
2010,07,02,14,06,17.00
2010,07,02,14,07,17.00
2010,07,02,14,08,17.00
2010,07,02,14,09,17.00
2010,07,02,14,10,17.00
2010,07,02,14,11,16.90
2010,07,02,14,12,16.90
2010,07,02,14,13,16.90
2010,07,02,14,14,16.90
2010,07,02,14,15,16.90
2010,07,02,14,16,16.90
2010,07,02,14,17,16.90
2010,07,02,14,18,16.90
2010,07,02,14,19,16.80
2010,07,02,14,20,16.80
2010,07,02,14,21,16.80
2010,07,02,14,22,16.80
2010,07,02,14,23,16.90
2010,07,02,14,24,16.90
2010,07,02,14,25,17.00
2010,07,02,14,26,17.00
2010,07,02,14,27,17.10
2010,07,02,14,28,17.10
2010,07,02,14,29,17.10
2010,07,02,14,30,17.20
2010,07,02,14,31,17.20
2010,07,02,14,32,17.20
2010,07,02,14,33,17.20
2010,07,02,14,34,17.20
2010,07,02,14,35,17.20
2010,07,02,14,36,17.20
2010,07,02,14,37,17.20
2010,07,02,14,38,17.20
2010,07,02,14,39,17.20
2010,07,02,14,40,17.20
2010,07,02,14,41,17.10
2010,07,02,14,42,17.10
2010,07,02,14,43,17.10
2010,07,02,14,44,17.10
2010,07,02,14,45,17.10
2010,07,02,14,46,17.10
2010,07,02,14,47,17.10
2010,07,02,14,48,17.10
2010,07,02,14,49,17.10
2010,07,02,14,50,17.10
2010,07,02,14,51,17.10
2010,07,02,14,52,17.10
2010,07,02,14,53,17.10
2010,07,02,14,54,17.20
2010,07,02,14,55,17.20
2010,07,02,14,56,17.30
2010,07,02,14,57,17.30
2010,07,02,14,58,17.30
2010,07,02,14,59,17.30
2010,07,02,15,00,17.30
2010,07,02,15,01,17.30
2010,07,02,15,02,17.30
2010,07,02,15,03,17.20
2010,07,02,15,04,17.20
2010,07,02,15,05,17.10
2010,07,02,15,06,17.10
2010,07,02,15,07,17.10
2010,07,02,15,08,17.10
2010,07,02,15,09,17.00
2010,07,02,15,10,16.90
2010,07,02,15,11,16.80
2010,07,02,15,12,16.80
2010,07,02,15,13,16.80
2010,07,02,15,14,16.80
2010,07,02,15,15,16.80
2010,07,02,15,16,16.80
2010,07,02,15,17,16.80
2010,07,02,15,18,16.70
2010,07,02,15,19,16.70
2010,07,02,15,20,16.80
2010,07,02,15,21,16.80
2010,07,02,15,22,16.80
2010,07,02,15,23,16.90
2010,07,02,15,24,17.00
2010,07,02,15,25,17.10
2010,07,02,15,26,17.20
2010,07,02,15,27,17.30
2010,07,02,15,28,17.40
2010,07,02,15,29,17.50
2010,07,02,15,30,17.60
2010,07,02,15,31,17.60
2010,07,02,15,32,17.70
2010,07,02,15,33,17.70
2010,07,02,15,34,17.70
2010,07,02,15,35,17.80
2010,07,02,15,36,17.80
2010,07,02,15,37,17.80
2010,07,02,15,38,17.80
2010,07,02,15,39,17.80
2010,07,02,15,40,17.70
2010,07,02,15,41,17.70
2010,07,02,15,42,17.60
2010,07,02,15,43,17.60
2010,07,02,15,44,17.50
2010,07,02,15,45,17.40
2010,07,02,15,46,17.40
2010,07,02,15,47,17.30
2010,07,02,15,48,17.30
2010,07,02,15,49,17.30
2010,07,02,15,50,17.20
2010,07,02,15,51,17.20
2010,07,02,15,52,17.20
2010,07,02,15,53,17.20
2010,07,02,15,54,17.20
2010,07,02,15,55,17.30
2010,07,02,15,56,17.30
2010,07,02,15,57,17.40
2010,07,02,15,58,17.40
2010,07,02,15,59,17.40
2010,07,02,16,00,17.40
2010,07,02,16,01,17.50
2010,07,02,16,02,17.50
2010,07,02,16,03,17.50
2010,07,02,16,04,17.50
2010,07,02,16,05,17.50
2010,07,02,16,06,17.50
2010,07,02,16,07,17.50
2010,07,02,16,08,17.50
2010,07,02,16,09,17.40
2010,07,02,16,10,17.40
2010,07,02,16,11,17.30
2010,07,02,16,12,17.30
2010,07,02,16,13,17.30
2010,07,02,16,14,17.30
2010,07,02,16,15,17.30
2010,07,02,16,16,17.30
2010,07,02,16,17,17.30
2010,07,02,16,18,17.20
2010,07,02,16,19,17.20
2010,07,02,16,20,17.20
2010,07,02,16,21,17.20
2010,07,02,16,22,17.20
2010,07,02,16,23,17.20
2010,07,02,16,24,17.20
2010,07,02,16,25,17.20
2010,07,02,16,26,17.20
2010,07,02,16,27,17.30
2010,07,02,16,28,17.30
2010,07,02,16,29,17.30
2010,07,02,16,30,17.30
2010,07,02,16,31,17.40
2010,07,02,16,32,17.40
2010,07,02,16,33,17.40
2010,07,02,16,34,17.30
2010,07,02,16,35,17.40
2010,07,02,16,36,17.40
2010,07,02,16,37,17.40
2010,07,02,16,38,17.30
2010,07,02,16,39,17.30
2010,07,02,16,40,17.30
2010,07,02,16,41,17.30
2010,07,02,16,42,17.30
2010,07,02,16,43,17.30
2010,07,02,16,44,17.30
2010,07,02,16,45,17.30
2010,07,02,16,46,17.30
2010,07,02,16,47,17.30
2010,07,02,16,48,17.30
2010,07,02,16,49,17.20
2010,07,02,16,50,17.20
2010,07,02,16,51,17.10
2010,07,02,16,52,17.10
2010,07,02,16,53,17.10
2010,07,02,16,54,17.00
2010,07,02,16,55,16.90
2010,07,02,16,56,16.90
2010,07,02,16,57,16.90
2010,07,02,16,58,16.80
2010,07,02,16,59,16.80
2010,07,02,17,00,16.80
2010,07,02,17,01,16.80
2010,07,02,17,02,16.90
2010,07,02,17,03,16.90
2010,07,02,17,04,16.90
2010,07,02,17,05,16.90
2010,07,02,17,06,16.90
2010,07,02,17,07,16.90
2010,07,02,17,08,16.90
2010,07,02,17,09,16.90
2010,07,02,17,10,16.90
2010,07,02,17,11,16.90
2010,07,02,17,12,16.90
2010,07,02,17,13,16.90
2010,07,02,17,14,16.90
2010,07,02,17,15,16.90
2010,07,02,17,16,16.90
2010,07,02,17,17,16.90
2010,07,02,17,18,16.90
2010,07,02,17,19,16.90
2010,07,02,17,20,16.90
2010,07,02,17,21,16.90
2010,07,02,17,22,16.90
2010,07,02,17,23,16.90
2010,07,02,17,24,17.00